カタログに戻る

STARLINK-31181

運用中通信VLEO
NORAD 58746·PAYLOAD·🇺🇸 United States

打ち上げ Jan 7, 2024 から Cape Canaveral Space Force Station

Loading…

次のパス (今後24時間)

TLE

最新Source: CelesTrak SupGP

元期: Sep 14, 2026, 21:44 UTC

1 58746C 24005U   26257.90604167  .00038637  00000+0  13997-2 0  2570
2 58746  42.9998  78.9272 0001322 272.0854 324.9686 15.27553644    15

AllMySatでSTARLINK-31181をリアルタイム追跡

Download on the App Store